Wind_Speed
120 122 123 124 125 126 127 127 127 128 128 128 129 129 128 128 128 128 129 129 128 128 127 127 126 125 124 123 123 122 123 123 124 124 124 123 123 123 122 122 121 120 119 119 118 117 116 115 114 113 112 111 110 110 110 109 109 108 107 106 105 104 103 101 97 93 94 96 99 100 100 100 98 97 95 94 94 94 94 93 92 90 89 89 88
119 121 122 123 124 126 127 128 129 129 130 131 132 132 133 132 132 132 132 133 133 133 132 132 131 131 130 129 128 127 127 126 127 127 128 128 128 128 128 127 126 125 125 124 124 123 122 121 120 119 119 117 116 115 115 114 114 113 112 111 110 109 109 108 105 101 99 99 101 103 104 104 103 102 101 100 100 99 98 97 96 94 94 94 93
117 119 120 121 123 124 126 127 128 129 130 132 133 134 135 136 136 136 136 136 136 136 136 136 136 135 135 134 133 133 132 131 131 131 131 131 132 132 132 132 131 130 130 129 129 128 127 126 125 125 124 123 121 120 120 119 119 118 117 116 115 114 113 113 111 108 106 105 105 106 108 108 108 107 107 106 105 104 103 102 101 100 99 99 98
114 115 117 119 120 122 123 125 127 128 129 130 132 133 135 137 138 138 139 139 140 140 140 141 140 140 139 138 138 138 137 137 136 136 135 135 135 135 136 136 135 134 134 133 133 133 132 131 130 130 129 128 127 126 125 125 124 123 122 121 120 119 118 117 116 114 112 111 110 110 111 112 113 113 113 112 111 110 108 107 106 105 104 104 104
113 114 115 116 117 119 120 122 124 125 127 128 129 131 132 134 136 138 140 141 142 143 144 144 144 144 144 143 142 142 142 142 142 141 141 140 140 139 139 139 139 139 138 137 137 137 136 135 135 134 134 133 132 131 130 130 129 128 127 126 125 124 123 122 121 119 118 116 115 114 115 115 116 116 117 116 116 115 114 112 110 109 108 108 108
113 113 114 114 115 116 118 119 121 123 124 126 127 128 129 131 132 134 137 139 140 142 144 145 146 147 147 146 146 145 145 146 146 146 146 146 145 144 144 144 143 143 142 142 141 141 140 139 139 138 138 137 137 136 135 135 134 133 131 130 129 128 127 126 125 124 122 121 120 120 119 119 119 120 120 120 120 119 118 116 114 112 111 111 112
113 114 114 114 114 115 116 117 118 120 121 123 124 125 127 128 129 130 132 134 136 138 140 142 144 146 147 148 148 148 147 147 148 149 150 150 150 149 148 148 148 148 147 146 145 145 144 143 143 142 141 141 141 141 140 139 138 137 136 136 135 134 132 131 129 128 127 125 124 124 123 123 123 124 124 124 124 122 121 119 117 115 115 115 116
112 113 114 115 115 116 116 117 118 119 120 121 122 123 124 125 126 127 129 130 132 133 135 137 138 140 143 145 146 147 147 147 148 149 151 152 152 152 152 151 151 151 151 151 150 149 148 148 147 146 145 145 145 144 144 144 143 142 141 141 140 139 138 136 135 133 131 130 129 128 127 126 126 126 127 127 126 125 124 123 122 121 121 121 120
109 110 112 113 115 116 117 118 118 119 120 120 121 122 123 123 124 125 126 127 128 129 130 132 133 135 137 139 141 142 144 144 145 147 148 150 151 152 153 153 152 153 153 153 153 153 153 152 151 151 150 149 148 148 148 148 147 146 146 145 145 144 143 142 140 138 137 135 133 133 132 130 129 128 128 128 128 129 129 129 128 127 126 126 125
105 106 108 109 111 113 114 116 117 118 119 120 120 121 121 122 123 123 124 125 125 126 126 127 129 130 131 133 135 136 138 139 140 142 144 145 147 149 150 151 152 152 152 153 153 154 154 155 155 155 154 153 152 151 151 151 150 150 149 149 149 148 147 146 145 144 142 140 139 138 136 135 133 132 131 130 131 133 133 133 132 132 131 130 128
102 103 104 105 106 107 109 110 112 113 115 117 118 119 120 120 121 122 123 124 124 125 125 125 126 127 127 128 129 131 132 133 135 137 139 140 141 143 144 146 147 148 149 150 150 151 152 153 154 155 156 156 155 155 155 154 154 153 153 153 152 152 151 150 149 148 147 146 144 143 141 139 137 136 135 134 135 136 136 136 136 136 135 133 131
100 101 101 102 103 104 105 105 106 108 109 111 112 113 115 116 118 119 120 121 122 123 124 124 124 125 125 126 126 126 127 129 130 132 134 135 136 137 138 138 139 140 142 143 144 145 147 148 149 151 152 153 154 155 155 155 155 156 156 156 156 155 154 153 152 152 151 150 149 148 146 144 142 141 140 139 138 138 139 140 140 139 137 136 134
98 99 100 101 102 102 103 103 103 104 105 106 106 107 109 110 112 113 115 116 117 119 120 121 122 123 124 124 124 124 124 125 127 129 131 132 133 134 133 133 132 132 133 134 135 136 138 140 142 143 144 146 148 149 149 150 150 151 153 154 155 156 156 155 155 155 155 154 153 152 150 149 147 146 145 144 143 142 142 142 142 142 141 140 138
97 98 98 98 99 100 100 101 101 101 102 103 103 104 105 106 107 109 109 110 111 113 114 115 117 118 120 121 121 121 121 123 125 127 128 129 130 130 130 129 127 127 127 127 128 129 130 132 133 135 136 138 139 141 142 143 143 144 144 145 146 147 149 150 151 151 152 153 153 153 152 152 152 152 151 149 147 146 144 144 144 144 144 144 143
96 96 96 97 97 97 97 97 97 97 98 99 100 101 103 104 104 105 106 106 107 108 109 110 111 112 114 116 117 117 117 119 121 123 125 126 127 127 127 126 124 122 122 122 123 124 125 126 127 128 129 130 132 133 135 136 138 138 138 137 136 137 138 140 141 142 143 145 145 146 147 149 150 152 153 153 152 150 149 148 148 148 148 148 147
94 95 95 96 96 96 96 95 94 94 95 96 97 98 99 100 100 101 101 102 103 104 105 106 107 108 110 111 112 112 113 114 117 120 121 123 124 124 123 122 121 119 118 117 118 118 119 121 122 123 124 125 126 128 130 131 132 133 133 132 131 130 130 131 132 133 135 136 136 137 138 140 142 144 146 148 150 150 151 150 150 150 149 149 148
91 92 92 93 93 94 93 93 93 93 93 94 94 94 95 95 95 96 97 97 98 100 101 102 103 104 106 108 109 110 110 111 114 117 118 119 121 121 121 120 118 117 115 115 115 115 115 115 116 117 118 119 120 123 126 128 128 128 128 128 127 126 124 124 125 127 128 129 129 129 130 132 134 135 137 139 141 144 145 146 146 147 148 147 146
89 90 90 90 90 91 91 91 91 91 91 92 91 91 91 91 91 92 93 93 94 95 96 97 98 101 102 103 105 106 106 108 111 114 115 116 118 118 118 117 116 115 115 115 115 114 114 113 113 113 113 113 115 118 121 124 125 124 123 123 123 123 121 119 120 122 124 125 124 123 123 125 127 129 130 131 132 135 136 137 138 141 142 141 140
88 88 88 88 88 89 89 90 90 89 89 89 89 88 88 89 89 90 90 90 90 91 92 93 94 96 98 99 101 102 103 104 107 110 111 113 114 115 115 114 113 113 114 114 115 114 114 113 113 112 111 110 111 114 117 120 122 121 120 119 118 117 116 116 118 120 121 121 121 120 119 120 121 123 124 125 126 127 127 128 130 132 132 130 131
88 88 87 87 88 88 88 88 88 88 88 87 87 87 87 88 89 89 89 89 88 88 89 90 90 92 94 95 96 98 98 100 102 105 106 108 111 112 112 111 111 110 111 111 112 112 113 113 114 114 114 112 111 112 114 116 118 119 118 116 113 110 110 113 116 118 118 117 117 117 117 116 117 118 119 120 120 120 120 122 123 125 125 124 124
88 87 87 87 88 88 88 87 87 87 87 86 86 87 88 87 87 88 88 88 88 88 88 88 89 90 91 92 93 94 94 95 97 100 102 104 106 107 107 107 107 107 106 106 106 107 109 111 112 114 115 115 113 112 112 113 115 116 115 113 110 107 106 109 113 115 116 114 113 114 114 114 114 115 115 116 116 116 116 117 118 119 120 120 120
87 87 87 88 88 88 87 87 87 87 86 85 85 86 87 87 86 86 87 87 87 87 88 88 88 89 90 91 91 92 93 93 94 96 98 100 102 103 103 103 103 103 101 100 100 101 102 105 108 111 113 115 114 113 112 112 112 112 111 109 108 107 107 107 108 110 112 111 110 109 110 111 112 112 112 113 114 114 115 115 115 116 117 117 117
87 87 87 87 87 87 87 87 87 86 86 85 84 85 86 86 86 85 85 85 86 87 87 88 87 88 89 90 91 91 92 93 94 95 96 97 98 99 99 99 100 100 98 96 96 96 97 99 101 106 109 112 112 112 112 112 111 110 107 105 104 106 107 108 108 106 106 106 105 105 105 106 108 109 110 111 112 113 115 115 114 115 114 114 113
85 86 86 86 86 86 86 87 86 86 85 84 84 84 85 85 85 85 85 85 85 86 87 88 87 87 88 89 90 91 92 93 94 95 95 96 96 97 97 97 98 97 96 94 94 94 94 95 96 99 104 107 109 109 110 110 109 108 106 104 102 102 104 107 107 106 104 102 102 101 101 102 103 105 107 109 111 112 113 113 113 112 112 111 110
84 84 84 84 84 85 85 85 85 84 84 83 82 83 83 83 84 85 84 85 85 86 87 87 87 87 87 88 89 90 91 92 93 94 94 94 94 95 96 96 97 97 95 94 93 92 92 93 93 95 98 102 104 106 107 107 107 106 105 104 102 101 100 101 103 104 103 101 100 100 100 101 102 104 105 108 109 109 109 109 109 109 109 107 106
83 83 83 83 83 84 83 83 83 83 82 81 81 80 80 81 82 82 83 83 84 85 85 86 86 86 86 87 88 89 90 91 91 92 92 92 93 93 93 94 95 95 95 94 93 92 91 91 92 92 94 97 100 103 104 105 105 106 104 103 101 100 98 98 98 99 99 99 99 100 100 101 103 105 105 106 106 106 106 106 106 106 106 105 104
82 83 83 83 83 83 82 82 82 81 81 80 80 79 79 78 79 80 81 81 82 83 83 83 83 83 84 85 85 86 88 89 89 90 90 90 90 91 90 90 91 91 92 92 92 91 90 90 91 91 92 94 97 99 101 103 105 105 104 102 100 99 98 97 97 97 96 96 97 98 99 100 103 104 105 104 104 104 104 105 105 104 104 104 103
82 82 82 83 83 82 81 81 81 81 80 80 80 79 78 78 78 79 79 79 80 81 81 81 81 81 81 81 82 83 84 85 85 86 86 87 87 87 87 87 87 87 87 88 88 88 88 88 89 90 91 92 94 96 98 100 102 103 103 102 100 99 98 97 97 96 95 94 94 95 97 98 100 101 103 104 104 103 103 104 104 103 103 103 102
80 80 80 81 80 80 80 79 79 79 78 78 78 78 77 76 76 77 77 77 77 77 77 78 78 77 77 77 78 79 80 81 81 82 82 82 82 82 83 83 82 83 83 83 83 84 84 84 85 87 88 89 91 93 96 98 100 101 102 101 100 98 97 96 95 94 93 94 94 93 94 95 97 98 99 101 102 102 102 102 103 103 102 102 102
77 78 78 78 78 77 77 77 76 76 75 74 75 75 76 75 73 74 75 76 75 74 74 75 75 75 74 74 75 75 76 77 78 79 79 79 79 79 79 79 79 78 79 79 79 80 81 81 82 83 85 86 87 89 92 95 96 98 98 99 99 97 95 94 93 92 93 94 94 93 92 92 93 94 95 97 99 100 101 101 101 101 101 102 101
74 75 75 75 74 74 73 73 73 72 71 71 70 71 73 74 73 71 71 72 73 73 72 72 72 72 72 72 72 73 73 73 74 75 76 77 77 77 76 76 75 74 74 75 76 77 78 79 79 80 82 83 84 86 88 90 92 93 94 95 95 95 94 92 91 91 92 93 94 94 93 91 90 90 92 93 95 96 97 99 99 99 99 100 100
71 72 72 72 72 71 70 70 70 69 68 68 68 68 69 72 73 72 70 69 69 70 70 70 70 70 70 69 69 70 70 70 71 72 73 73 74 74 75 74 73 71 70 70 71 73 75 76 77 78 79 81 82 83 84 86 88 88 89 89 90 91 91 90 90 90 91 91 92 93 92 91 90 89 89 90 91 92 93 95 96 97 97 98 98
69 70 70 70 70 69 68 68 68 67 67 66 67 67 67 68 70 72 71 70 68 66 66 67 67 68 68 68 67 67 67 67 68 68 70 70 71 71 72 72 71 69 67 67 67 69 71 73 75 76 77 78 79 80 81 82 83 84 84 85 86 86 87 88 88 89 88 88 89 90 91 91 90 89 88 88 88 89 90 91 93 94 95 95 95
68 68 67 68 68 67 66 66 66 65 65 65 65 65 66 66 67 68 69 70 69 67 65 64 64 64 65 66 66 65 65 64 64 65 66 68 68 68 69 69 69 67 66 65 65 65 66 69 71 73 74 74 76 77 77 78 78 80 81 82 83 83 84 85 86 86 86 86 87 87 88 89 89 89 88 87 87 88 88 88 90 91 92 93 94
66 66 65 65 66 65 65 64 64 63 63 64 64 64 64 64 64 65 65 67 68 68 66 64 63 62 62 63 64 64 63 63 62 61 62 64 65 65 65 66 66 65 64 63 63 63 63 65 67 69 70 71 72 73 73 74 75 76 78 80 81 81 83 83 84 84 84 84 84 84 85 86 86 87 87 87 87 87 87 87 88 88 90 91 92
64 64 64 64 64 63 62 62 61 62 62 62 62 62 62 62 62 63 63 64 64 64 65 64 64 63 61 61 61 61 61 61 60 59 59 61 62 62 63 63 63 63 62 61 61 61 61 61 63 65 66 67 68 68 69 71 72 73 75 78 79 80 81 82 82 83 83 83 82 82 82 83 83 84 85 86 87 87 87 87 88 88 88 89 89
63 63 63 63 62 61 61 60 60 60 60 60 60 60 60 60 60 61 61 62 62 62 62 62 62 62 62 61 61 60 59 59 59 58 58 59 60 60 60 61 61 61 60 59 59 59 59 59 60 61 63 63 64 65 66 67 68 70 73 75 77 78 79 80 81 81 81 81 81 81 81 81 81 82 82 84 85 86 87 88 88 87 87 87 86
63 62 63 63 62 61 60 59 59 59 59 59 59 59 59 59 59 59 60 60 60 60 60 60 59 60 60 61 61 61 59 57 57 56 56 56 57 58 59 59 59 59 58 57 57 57 57 57 57 58 60 60 61 62 62 64 65 68 70 73 75 76 77 78 79 79 80 80 79 79 79 78 78 79 79 81 82 84 85 87 87 86 86 85 84
63 62 62 62 62 61 60 59 59 58 58 58 58 58 58 58 58 58 58 58 58 58 58 58 57 57 58 59 61 62 61 58 55 55 55 55 55 56 57 57 57 57 57 56 55 55 55 55 55 55 56 57 58 59 60 61 63 64 66 68 71 74 75 76 76 76 77 77 76 76 76 75 75 76 76 78 79 80 82 84 85 85 84 84 84
63 62 62 62 62 61 60 60 59 59 58 58 58 58 58 57 57 57 57 57 57 56 56 56 55 55 56 57 58 60 61 59 56 53 53 54 54 53 54 55 55 56 56 55 54 54 54 53 53 53 54 55 56 57 57 58 59 60 61 63 66 69 71 72 73 73 73 73 74 74 73 73 73 74 74 75 76 78 79 81 83 83 84 84 84
63 62 61 61 61 61 60 59 59 58 58 58 58 58 57 57 56 56 56 56 56 55 54 53 53 53 54 55 56 57 59 59 57 53 52 53 53 52 52 53 53 54 54 54 53 53 53 52 51 51 51 52 53 54 55 55 56 57 58 60 62 65 67 68 69 69 70 71 72 72 72 72 72 72 72 73 75 76 77 79 81 82 83 84 84
62 61 61 60 60 60 59 58 58 58 57 57 57 56 56 56 55 55 55 55 55 54 53 52 52 52 52 52 54 55 56 57 56 53 52 52 52 51 51 51 51 51 52 52 52 52 52 51 50 49 49 50 51 52 52 53 54 55 56 57 60 62 64 65 65 66 67 68 69 70 70 70 70 70 70 72 73 75 76 77 79 80 82 83 84
61 60 60 60 59 59 58 57 57 57 56 56 56 55 55 55 54 54 54 54 53 52 52 52 52 51 51 50 51 52 53 54 54 52 50 51 51 50 50 50 50 50 50 50 51 50 50 50 49 49 48 48 49 50 50 51 52 52 54 55 57 59 61 62 63 64 65 66 67 67 67 67 67 67 69 70 72 73 75 76 77 79 80 81 82
59 59 59 58 58 58 57 56 56 55 55 55 54 54 54 54 54 53 53 52 51 50 50 51 52 52 51 50 49 50 51 52 52 50 49 49 50 50 49 48 49 50 49 49 49 49 49 49 48 48 47 47 48 48 49 49 50 51 52 53 55 57 58 60 61 62 63 64 65 65 65 64 64 65 66 68 70 72 73 74 76 77 79 80 81
57 57 57 56 56 56 55 55 54 54 54 53 53 53 54 54 53 53 52 51 50 49 49 49 50 51 52 51 49 49 49 50 50 49 48 48 49 50 48 47 47 48 48 48 47 48 48 48 47 47 47 46 47 47 48 48 49 49 50 51 53 54 56 57 58 59 60 61 62 63 63 62 62 63 64 66 68 69 71 73 74 76 77 78 79
55 55 55 54 54 54 53 53 52 52 53 53 53 53 53 53 53 52 51 50 49 48 48 48 48 49 50 51 50 48 48 48 49 48 46 46 47 48 48 46 45 46 47 47 46 46 46 46 46 46 46 46 46 46 47 47 48 48 49 50 51 52 53 55 56 57 58 59 60 60 60 60 60 61 62 63 65 67 68 70 72 74 75 76 77
54 53 53 53 52 52 52 51 51 52 52 52 52 52 52 52 51 51 50 49 48 48 47 47 46 47 49 50 50 48 47 47 47 47 45 44 44 46 47 46 44 44 45 46 45 45 45 45 45 44 44 45 45 45 46 46 47 47 48 49 50 51 51 52 54 55 56 57 58 58 58 58 58 59 60 61 62 64 66 68 70 72 73 74 75
52 52 52 51 51 51 51 51 51 51 51 51 51 52 52 51 51 50 49 48 47 47 46 45 45 46 47 49 49 48 47 47 46 45 44 42 41 42 45 45 44 43 43 44 44 44 43 43 43 43 43 43 44 44 45 45 46 46 47 47 48 49 50 51 52 53 54 55 56 56 56 56 57 57 58 59 61 62 64 67 68 70 71 72 73
51 50 51 51 51 51 51 51 51 51 51 51 51 51 51 51 50 49 48 47 47 46 44 43 43 44 45 47 48 47 46 45 45 44 43 41 40 40 41 44 44 42 41 42 42 42 42 42 42 42 42 42 43 43 44 44 45 45 46 46 47 48 49 50 50 51 52 53 54 55 55 55 56 56 57 58 60 61 63 65 66 68 69 70 72
50 50 50 50 50 51 51 50 51 51 50 50 50 50 50 50 49 48 47 47 46 44 43 41 42 43 43 44 45 45 44 44 44 43 42 41 39 38 39 41 42 42 40 39 40 41 41 41 41 41 41 41 41 42 43 43 44 44 45 45 46 47 48 49 49 50 50 51 52 53 54 55 55 56 57 58 59 60 61 63 64 65 66 68 69
50 50 50 50 50 50 50 50 50 50 50 50 50 49 49 48 48 47 47 46 45 43 41 40 40 41 41 42 43 43 43 43 42 42 42 40 39 38 37 38 39 40 39 38 38 39 39 39 39 39 40 40 40 41 41 42 43 43 44 44 45 46 47 48 48 49 49 50 51 51 52 53 54 55 56 57 58 59 60 61 62 63 64 65 67
Wind_Direction
266 265 264 264 263 263 262 261 260 259 259 258 258 258 258 258 258 258 259 259 259 259 259 260 260 260 260 259 258 257 256 256 255 255 255 256 256 256 257 257 257 257 257 257 257 257 256 256 255 255 255 255 256 256 256 256 256 257 258 258 259 259 259 258 257 255 255 255 257 258 258 259 260 260 261 261 261 261 261 262 262 263 263 264 264
267 266 265 264 264 263 263 262 261 260 259 258 257 257 257 257 257 258 258 258 259 259 259 259 259 259 259 259 259 258 257 256 256 255 255 255 255 255 255 255 256 256 256 257 257 257 257 257 256 256 255 255 255 255 255 255 256 256 256 257 257 257 258 258 257 256 255 255 256 257 258 259 260 261 262 262 262 262 262 263 263 264 264 265 265
267 266 266 265 265 264 263 263 262 261 260 259 258 258 257 257 257 256 257 257 257 258 258 258 259 259 259 259 259 258 258 257 257 256 255 255 255 254 254 254 254 254 255 255 256 256 256 256 256 256 256 256 255 255 254 255 255 255 256 256 256 256 256 256 256 256 255 255 255 256 258 259 260 260 261 262 262 263 263 264 264 265 265 265 265
267 267 266 266 265 265 264 264 263 263 262 261 260 260 259 258 258 257 257 256 256 257 257 257 257 258 258 258 258 258 258 258 257 257 256 255 255 254 254 254 254 254 254 254 254 254 255 255 255 256 256 256 256 256 255 255 255 255 255 255 255 256 256 256 256 256 255 255 255 255 256 257 258 259 260 261 262 263 263 263 264 264 265 266 266
268 267 267 266 266 265 265 265 264 264 263 263 262 261 261 260 260 259 258 258 257 257 257 257 257 257 257 257 257 257 257 258 258 257 257 256 256 255 255 254 254 253 253 253 253 253 254 254 254 255 255 255 256 256 256 256 255 255 255 255 255 255 255 255 255 256 255 255 255 255 256 257 258 259 260 261 262 262 262 263 263 263 264 265 266
270 269 268 267 267 266 266 265 265 265 265 264 264 263 262 262 261 261 260 260 259 259 258 258 258 258 258 258 258 257 257 257 257 257 257 257 256 256 256 255 255 254 254 253 253 253 253 253 253 254 254 255 255 255 255 255 256 256 256 256 255 255 255 254 254 254 254 254 255 255 256 256 257 258 259 260 261 262 262 263 263 264 264 265 265
270 270 269 269 268 267 267 266 266 265 265 265 264 264 264 263 263 262 261 261 260 260 259 259 259 259 259 260 259 259 258 258 258 258 258 257 257 256 256 255 255 255 255 255 254 254 253 253 253 253 253 254 254 255 255 255 255 255 256 256 256 256 256 255 255 254 254 254 254 254 254 255 256 257 259 260 261 261 262 263 263 263 263 263 263
270 270 269 269 269 268 268 267 266 266 265 265 265 264 264 264 263 263 262 262 262 261 261 260 260 260 259 260 260 260 259 259 259 258 258 258 258 258 257 256 256 255 255 255 255 255 254 254 254 253 253 253 253 254 254 255 255 255 255 256 256 256 256 256 256 255 255 255 254 254 254 254 255 256 257 259 260 261 262 262 262 262 262 262 262
269 269 268 268 267 267 267 267 266 266 265 265 265 264 264 264 264 263 263 263 262 262 262 262 261 261 261 260 260 260 260 260 259 259 259 259 259 259 258 258 257 256 256 255 255 255 255 254 254 254 254 254 254 254 254 254 255 255 255 256 256 256 256 256 256 256 256 255 255 255 255 254 254 255 256 257 259 259 260 260 260 261 261 262 262
270 269 268 267 267 266 266 266 266 266 266 266 265 265 265 265 265 265 264 264 264 263 263 263 263 262 262 262 261 261 261 261 261 260 260 259 259 259 259 259 258 258 258 257 256 256 256 255 255 255 255 254 254 254 254 254 254 255 255 255 256 256 256 256 256 256 256 256 255 255 255 255 255 255 255 256 257 258 258 259 260 260 261 261 262
273 272 271 269 268 268 267 266 266 266 266 266 266 266 266 266 266 265 265 265 265 265 265 264 264 264 263 263 263 262 262 262 262 262 262 261 261 260 259 259 259 259 259 259 258 258 258 257 257 257 257 256 256 255 255 254 254 255 255 255 255 256 256 256 257 257 257 256 256 256 256 255 255 255 255 255 256 257 258 259 259 259 260 261 262
274 274 273 272 271 270 269 268 267 267 266 266 265 265 265 265 265 265 265 265 266 266 266 265 265 265 264 264 264 263 263 263 263 263 263 262 262 262 261 261 260 260 260 260 260 260 260 259 259 259 259 259 259 258 258 257 256 256 255 255 255 256 256 256 256 257 257 257 257 257 256 256 256 256 256 255 255 256 257 258 259 259 260 261 262
275 274 274 273 272 272 271 270 270 269 269 268 267 267 266 266 265 265 265 265 265 265 265 266 266 266 266 265 265 265 264 264 264 264 264 263 263 263 262 262 261 261 261 261 261 260 260 260 260 260 260 260 260 261 260 260 259 258 258 257 257 257 257 257 257 257 258 258 258 257 257 257 257 256 256 256 256 256 256 257 258 259 260 260 261
277 276 275 274 274 273 272 272 271 271 270 270 269 269 268 267 267 266 266 265 265 265 265 265 265 266 266 266 266 266 266 265 265 265 264 264 264 264 263 263 262 262 261 261 261 261 261 260 260 260 260 261 261 261 261 261 261 260 260 259 259 258 258 258 258 258 258 259 259 258 258 257 257 256 256 257 257 257 257 257 258 259 259 260 260
279 278 277 276 276 275 274 273 272 272 271 271 270 269 269 268 268 267 267 267 266 266 266 266 266 265 265 265 265 265 265 265 265 265 265 265 265 265 264 264 263 263 262 261 261 261 260 260 260 260 260 260 260 260 260 260 261 261 261 260 260 259 259 259 259 259 259 259 259 259 258 258 257 257 256 256 256 256 256 257 257 258 258 259 259
278 278 277 277 276 276 275 275 274 273 272 271 270 269 269 269 268 268 268 268 267 267 267 266 266 266 266 266 265 265 264 264 264 264 264 264 264 264 264 264 264 263 263 262 261 260 260 259 259 259 259 259 259 260 260 259 259 259 260 260 260 259 259 259 259 259 259 258 258 258 258 258 258 258 257 257 257 257 257 257 257 257 258 259 260
278 277 277 276 276 276 276 276 275 274 273 272 271 271 270 270 269 269 269 268 268 267 267 266 266 266 265 265 265 265 264 264 263 263 263 263 263 263 264 264 265 265 264 264 263 262 261 260 259 259 258 258 258 259 259 259 259 258 258 258 259 258 258 258 258 258 258 258 258 258 258 258 258 258 258 258 257 257 258 258 258 259 259 259 260
278 277 277 277 277 277 276 276 275 274 274 273 273 273 272 272 271 270 269 268 267 267 266 266 265 265 265 264 264 264 264 264 264 264 264 263 263 263 264 264 264 265 265 265 264 264 263 263 262 260 259 258 258 258 258 258 258 258 257 257 257 257 257 257 257 257 257 258 258 257 257 257 258 258 258 258 258 258 258 258 259 259 259 260 260
278 278 277 277 277 276 276 276 275 275 275 275 275 274 274 273 272 271 270 269 268 267 267 266 266 265 265 264 264 264 263 263 263 264 264 264 264 264 264 263 263 263 263 263 263 264 264 264 264 263 261 259 258 257 257 258 258 258 257 256 256 256 256 257 256 256 256 256 257 257 257 256 257 257 258 258 258 258 258 258 259 259 260 260 260
278 278 278 277 277 276 276 275 275 275 275 275 275 274 274 273 272 272 272 271 270 269 268 268 267 266 266 265 264 264 264 263 263 264 264 264 264 264 264 264 263 262 262 262 262 262 263 264 264 264 263 262 260 258 257 257 257 258 258 257 257 256 255 255 256 255 255 255 255 255 256 256 256 256 257 257 257 257 258 258 258 259 259 260 259
279 279 278 277 277 276 276 275 275 275 275 274 274 274 273 273 272 272 272 272 272 271 270 269 269 268 267 267 266 266 265 264 264 264 264 264 264 264 264 264 264 263 262 262 261 261 262 262 263 263 263 263 263 261 259 258 258 258 258 258 258 257 256 254 254 255 255 254 254 254 254 255 255 255 256 256 257 257 257 257 257 257 258 258 258
280 280 279 278 277 277 276 276 275 275 275 274 274 273 273 273 273 272 272 272 272 272 271 270 269 269 269 268 268 267 267 266 265 265 264 264 264 264 265 265 265 265 264 263 262 261 261 261 261 262 263 263 263 263 262 261 260 259 258 258 258 258 257 256 254 254 254 254 254 253 253 254 254 255 255 255 256 256 256 256 255 255 255 256 257
281 281 280 279 279 278 277 277 276 276 275 275 274 274 274 274 274 273 273 272 272 272 271 270 270 269 269 269 268 268 267 267 266 266 266 265 265 266 266 265 265 265 265 264 263 262 261 260 260 261 262 262 263 263 263 263 262 261 260 258 257 257 257 257 256 255 254 254 254 254 253 253 253 254 254 254 254 255 255 255 254 254 254 254 255
282 281 280 280 279 279 278 277 277 276 276 276 275 275 275 275 275 274 274 273 272 272 272 271 270 270 269 269 269 268 268 268 267 267 267 266 267 267 267 267 266 266 265 264 263 262 261 260 259 259 260 261 262 263 263 263 264 263 262 261 259 257 256 256 257 257 256 255 254 254 254 253 253 253 253 253 253 253 253 254 254 254 254 254 254
282 281 281 280 280 279 278 278 277 277 277 276 276 276 275 275 275 275 274 274 273 272 272 272 271 271 270 270 270 269 269 268 268 267 267 267 267 267 267 267 267 267 266 265 264 263 261 260 259 259 259 260 261 262 263 263 263 263 263 262 261 259 257 256 256 256 256 256 255 254 253 253 253 252 251 251 251 252 252 253 253 254 254 254 253
282 282 281 281 280 280 279 279 279 279 279 278 277 277 276 276 276 276 275 274 274 273 273 272 272 272 271 271 271 270 270 270 269 269 268 268 267 267 266 266 266 266 266 266 265 264 263 262 260 259 258 259 259 260 261 262 262 263 262 262 262 261 260 258 257 256 255 255 255 254 253 252 252 251 251 250 250 251 252 252 252 252 253 253 253
283 282 282 282 281 281 282 282 282 281 281 280 280 279 278 277 277 277 276 275 275 274 274 274 273 273 273 272 272 271 271 270 270 270 269 269 268 268 267 266 266 266 266 266 265 265 264 263 262 260 259 258 258 258 259 260 260 261 262 261 261 261 260 260 258 257 255 254 253 253 252 251 251 251 251 251 251 250 250 251 251 251 251 252 252
283 282 282 282 282 282 282 282 282 282 282 282 281 281 280 279 278 277 276 276 276 276 276 275 275 274 274 273 273 272 272 271 271 271 270 270 269 269 268 267 267 266 266 265 265 264 264 263 262 261 260 258 258 258 257 258 258 259 260 260 260 259 259 259 258 257 257 255 253 252 251 251 250 250 250 251 250 250 249 250 250 250 250 251 251
283 283 282 282 282 283 283 283 283 283 282 282 282 282 281 280 279 279 278 277 277 276 276 276 276 275 275 274 273 273 273 273 272 271 271 270 269 269 268 268 267 267 266 265 265 264 264 263 262 261 260 259 258 257 257 257 257 257 258 259 259 259 258 258 258 258 258 257 256 254 252 251 250 250 249 250 250 250 250 249 249 250 250 250 250
284 283 283 283 283 283 283 283 283 283 283 283 283 282 282 280 279 279 279 279 278 277 277 277 276 276 276 275 275 274 274 274 274 273 273 272 271 269 268 267 267 266 266 266 265 264 263 262 261 261 260 259 258 257 257 257 257 256 257 258 258 258 258 258 258 257 257 257 257 256 254 253 252 251 250 250 250 250 250 250 250 249 249 250 250
284 283 283 283 283 283 283 283 283 283 283 283 282 282 282 282 280 279 278 278 279 278 278 278 277 277 277 276 276 275 275 274 274 275 274 274 273 272 270 269 267 266 265 265 265 264 263 262 261 260 260 259 258 257 257 257 257 257 257 257 258 258 258 258 257 256 256 256 256 256 256 255 253 252 251 251 250 250 250 250 250 250 249 249 249
283 283 284 284 284 284 284 284 284 284 284 283 283 282 282 283 282 281 279 278 278 279 279 279 278 278 277 277 276 276 276 276 275 275 275 275 275 274 273 272 270 268 266 264 263 263 263 262 261 260 259 259 258 257 257 257 257 257 257 257 257 258 258 257 257 256 255 254 255 255 256 256 255 253 252 252 251 250 250 250 250 250 250 249 249
283 284 284 285 285 285 285 285 285 285 285 284 284 283 282 282 283 283 282 281 279 278 278 279 279 279 279 278 277 277 276 276 276 276 276 275 275 275 274 273 272 271 269 266 264 263 262 262 261 260 259 258 258 258 257 257 257 258 258 258 258 258 257 257 256 256 255 254 254 254 254 255 255 254 253 252 252 251 250 249 249 250 250 250 249
284 284 285 285 285 285 285 285 285 285 285 284 284 284 283 283 283 283 284 284 283 281 280 279 278 279 279 279 279 278 278 277 276 276 276 276 276 275 275 274 273 272 270 269 266 264 262 261 261 260 259 258 258 258 258 257 257 257 257 257 257 257 256 256 256 255 255 254 253 253 253 253 254 254 253 253 252 251 250 249 249 249 249 249 249
285 285 285 285 285 285 285 285 285 285 285 285 284 284 284 283 283 283 283 284 284 284 284 283 281 280 279 279 279 279 279 278 277 276 276 276 276 276 275 275 274 273 272 270 268 266 264 262 261 260 259 258 258 257 257 256 256 256 256 256 256 255 255 255 255 254 254 253 253 252 252 251 252 252 252 252 252 251 251 250 249 249 248 248 248
286 286 285 285 285 285 285 285 286 285 285 285 285 284 284 284 284 284 284 284 284 284 285 285 285 284 282 281 280 280 280 280 279 278 277 277 277 276 276 275 274 273 272 271 269 267 265 263 262 261 260 259 258 257 256 255 255 254 254 255 254 254 254 254 254 254 253 253 252 252 251 251 250 250 250 251 251 251 251 250 250 249 248 248 248
287 287 287 286 286 286 286 286 286 286 286 286 285 285 285 285 285 284 284 284 284 284 284 285 285 285 285 284 282 281 281 281 280 280 279 279 278 278 277 276 276 274 273 271 270 269 267 265 263 262 261 260 259 257 256 255 254 253 253 253 253 253 253 253 253 253 253 252 252 251 251 250 250 249 249 249 249 250 250 250 250 249 249 248 248
289 289 288 288 288 288 288 287 287 286 286 286 286 285 285 285 285 284 284 284 284 284 284 285 285 285 286 286 285 284 283 282 281 280 280 279 278 278 278 277 276 275 274 272 271 269 268 266 264 262 262 261 259 258 256 255 253 252 252 252 252 253 252 252 252 252 252 252 252 252 251 251 251 250 249 248 248 248 248 249 249 249 249 248 248
290 290 289 289 289 289 289 288 288 287 287 286 286 286 286 285 285 284 284 284 284 284 284 285 285 285 285 285 286 285 284 283 282 281 280 279 278 278 278 277 277 276 275 273 272 270 268 267 265 263 262 261 260 259 257 256 255 254 253 253 253 253 253 253 253 253 253 253 253 253 252 252 252 251 250 249 248 248 248 248 249 249 249 248 247
290 290 289 289 289 289 289 289 288 288 288 287 287 286 286 286 285 285 285 284 284 284 284 284 285 285 285 285 284 285 285 284 283 282 281 280 278 277 277 277 276 276 275 274 272 271 269 267 266 264 263 261 260 259 258 257 256 255 254 253 253 253 254 254 254 254 254 254 254 253 253 252 251 250 250 249 249 248 247 247 247 247 247 247 246
290 289 289 289 288 288 288 288 288 288 287 287 287 286 286 285 285 285 285 285 285 285 285 285 285 285 284 284 284 284 284 285 285 284 283 281 279 278 277 277 276 276 275 274 273 272 270 269 267 265 263 262 260 259 258 257 256 254 253 252 252 252 252 253 253 253 253 253 253 253 252 251 250 249 249 248 248 247 247 246 246 246 246 246 246
288 288 288 288 288 287 287 287 287 286 286 286 286 286 286 285 285 285 285 286 286 286 286 286 285 284 283 283 283 283 283 283 284 284 284 283 281 280 279 278 277 276 275 275 274 273 271 270 268 266 264 262 261 259 258 257 255 254 253 252 251 251 251 251 251 251 251 252 252 252 251 251 250 249 248 248 247 247 246 246 246 245 245 245 245
287 287 287 287 287 286 286 286 286 285 285 285 285 285 285 285 285 285 285 286 286 287 288 287 286 284 283 282 282 283 283 283 284 284 284 283 282 281 280 279 278 277 276 275 274 274 272 271 269 267 265 263 261 260 258 257 256 254 253 252 251 251 250 250 250 250 250 250 250 251 251 251 250 249 248 247 247 246 246 246 246 245 245 245 245
286 286 286 286 286 286 286 285 285 285 285 285 285 286 286 286 286 286 286 287 288 288 288 287 287 286 285 284 283 284 284 284 284 284 284 284 283 282 281 280 279 278 277 276 275 274 273 272 270 268 266 264 262 260 259 257 256 255 254 252 251 251 250 250 250 250 250 250 250 250 249 249 249 248 248 247 247 247 246 246 246 246 246 246 246
285 285 285 285 285 285 285 285 286 286 286 285 285 286 286 287 287 288 288 289 289 289 288 288 288 288 288 287 286 286 286 285 285 284 284 284 283 283 282 280 279 278 278 276 275 274 273 272 271 269 267 265 263 261 259 257 256 255 254 253 252 251 251 250 250 250 250 250 250 250 249 248 248 247 247 246 246 246 246 246 246 246 246 246 246
285 285 285 285 285 285 285 285 286 286 285 285 286 286 286 287 288 288 289 290 290 288 288 288 288 289 289 288 288 288 287 286 286 285 284 283 283 283 282 281 280 279 278 277 276 274 273 272 271 269 267 265 263 261 259 258 256 255 253 252 252 251 251 251 250 250 249 249 249 250 250 249 248 247 246 246 246 246 246 246 246 246 247 247 247
285 285 285 285 285 285 285 285 285 285 285 285 286 286 287 287 288 288 289 289 289 288 289 289 290 290 289 289 289 289 288 287 287 286 285 284 283 283 283 282 281 280 279 278 277 275 274 272 271 269 268 266 264 262 260 258 256 255 254 253 252 251 251 250 250 250 249 249 249 248 249 248 248 247 247 246 246 246 246 246 246 246 246 247 247
285 286 286 285 285 285 285 285 285 285 286 286 286 287 287 288 289 289 290 289 289 289 290 291 290 290 289 289 289 289 289 288 287 286 286 284 283 283 283 283 282 281 279 278 277 276 274 273 271 270 268 266 264 263 260 258 257 255 254 253 253 252 251 251 251 250 250 249 249 248 248 247 247 246 246 246 246 246 245 245 245 246 246 246 247
286 286 286 286 286 286 285 285 285 286 286 287 287 287 288 289 289 290 290 290 290 290 291 291 290 289 288 288 288 288 289 288 288 287 286 285 284 283 282 282 282 281 280 279 278 277 275 274 272 271 269 267 265 263 262 259 257 255 254 253 252 252 252 251 251 251 251 250 249 248 248 247 246 246 245 245 245 245 246 246 246 246 247 247 247
287 286 286 285 285 286 286 286 286 286 286 287 287 288 288 289 290 290 290 290 290 291 292 291 290 289 288 288 288 288 289 289 288 288 287 286 285 284 283 282 282 281 280 279 278 277 276 275 273 271 270 268 266 264 263 261 259 257 255 253 252 251 251 251 251 251 251 251 251 250 248 247 246 245 245 245 245 245 246 246 247 247 247 248 248
286 286 285 285 285 285 286 286 286 286 287 287 288 288 289 290 290 291 290 291 292 292 292 291 290 289 288 288 288 288 288 288 288 288 288 287 286 285 283 282 282 282 281 280 278 277 277 275 273 272 270 269 267 265 263 261 259 258 256 254 252 251 251 251 250 250 250 251 251 251 250 249 247 246 245 245 245 245 245 246 247 247 247 248 248
Height
10428 10427 10426 10426 10425 10425 10425 10425 10426 10427 10429 10430 10430 10429 10430 10431 10433 10433 10433 10434 10435 10437 10438 10439 10440 10441 10442 10442 10444 10445 10446 10447 10448 10450 10452 10454 10455 10456 10458 10460 10463 10466 10467 10468 10469 10471 10475 10478 10479 10480 10480 10483 10487 10488 10490 10492 10494 10496 10499 10501 10504 10507 10508 10511 10521 10530 10530 10526 10524 10521 10521 10522 10526 10530 10533 10536 10537 10538 10540 10542 10545 10549 10550 10550 10551
10406 10406 10405 10405 10405 10404 10403 10404 10404 10405 10406 10407 10408 10408 10409 10410 10412 10413 10413 10413 10414 10415 10416 10417 10419 10420 10422 10423 10423 10425 10426 10427 10428 10429 10431 10433 10435 10437 10438 10440 10443 10446 10448 10450 10450 10452 10456 10460 10462 10462 10462 10466 10470 10471 10473 10474 10476 10480 10483 10485 10488 10491 10492 10494 10502 10511 10516 10517 10513 10510 10508 10510 10514 10516 10518 10521 10522 10524 10528 10531 10533 10537 10538 10538 10539
10387 10386 10385 10384 10384 10383 10382 10382 10382 10383 10384 10385 10387 10387 10387 10388 10390 10392 10392 10392 10393 10393 10394 10395 10396 10398 10400 10401 10403 10404 10405 10406 10407 10408 10410 10412 10414 10416 10417 10420 10423 10426 10428 10430 10431 10433 10436 10441 10444 10444 10444 10448 10452 10453 10455 10457 10459 10462 10465 10467 10471 10475 10475 10476 10482 10492 10499 10502 10501 10500 10498 10498 10501 10503 10503 10506 10508 10512 10516 10519 10521 10524 10525 10525 10526
10368 10367 10365 10364 10363 10363 10362 10361 10361 10362 10362 10363 10365 10365 10366 10367 10368 10369 10370 10371 10371 10371 10371 10372 10373 10375 10377 10379 10380 10381 10382 10384 10385 10387 10388 10390 10392 10394 10396 10398 10401 10405 10407 10410 10412 10413 10416 10420 10423 10424 10426 10430 10433 10435 10436 10439 10440 10443 10447 10450 10453 10457 10458 10459 10463 10472 10478 10484 10487 10489 10487 10485 10487 10489 10490 10492 10495 10499 10502 10505 10508 10511 10512 10511 10512
10347 10347 10346 10344 10344 10343 10343 10342 10341 10341 10341 10342 10343 10343 10344 10345 10345 10346 10347 10349 10349 10349 10349 10350 10351 10353 10355 10357 10359 10360 10360 10362 10363 10364 10365 10366 10369 10372 10374 10376 10378 10382 10386 10389 10391 10393 10396 10400 10403 10404 10407 10411 10414 10416 10416 10419 10421 10424 10429 10432 10434 10438 10440 10442 10447 10452 10457 10465 10471 10473 10473 10473 10473 10474 10476 10478 10480 10482 10486 10490 10495 10498 10499 10499 10499
10327 10326 10326 10325 10325 10325 10324 10323 10322 10321 10321 10321 10321 10321 10322 10323 10324 10324 10324 10326 10327 10327 10327 10328 10329 10330 10332 10335 10337 10339 10340 10341 10341 10342 10343 10343 10346 10349 10351 10353 10355 10358 10362 10366 10369 10372 10375 10379 10382 10384 10387 10390 10393 10395 10397 10399 10402 10405 10409 10412 10414 10417 10421 10425 10429 10433 10438 10446 10452 10454 10457 10459 10459 10459 10459 10461 10463 10466 10470 10475 10481 10485 10486 10486 10485
10309 10307 10307 10306 10306 10305 10304 10303 10302 10302 10301 10300 10300 10299 10300 10300 10301 10302 10302 10303 10304 10304 10305 10306 10307 10308 10310 10311 10313 10315 10318 10320 10321 10320 10320 10320 10322 10325 10328 10331 10333 10335 10338 10342 10346 10349 10353 10357 10361 10364 10367 10370 10372 10374 10376 10379 10382 10385 10389 10391 10393 10396 10401 10406 10410 10413 10419 10426 10431 10436 10441 10443 10443 10443 10444 10444 10446 10451 10456 10461 10466 10469 10469 10467 10466
10293 10291 10289 10288 10286 10285 10284 10283 10282 10281 10280 10279 10278 10278 10278 10278 10279 10280 10280 10280 10281 10282 10283 10284 10286 10287 10288 10288 10289 10291 10294 10297 10299 10298 10297 10297 10298 10301 10304 10307 10310 10313 10315 10318 10321 10325 10329 10333 10337 10341 10344 10348 10352 10354 10355 10358 10361 10365 10368 10370 10372 10375 10381 10385 10389 10393 10400 10406 10411 10416 10421 10425 10428 10430 10430 10429 10432 10439 10442 10442 10444 10446 10446 10446 10447
10276 10274 10271 10269 10267 10265 10263 10262 10261 10260 10259 10258 10258 10257 10257 10257 10258 10259 10259 10259 10259 10260 10261 10263 10265 10266 10266 10267 10267 10268 10270 10273 10275 10275 10274 10275 10275 10276 10279 10282 10286 10289 10292 10296 10299 10302 10305 10308 10312 10316 10320 10324 10329 10332 10335 10337 10340 10344 10348 10348 10350 10355 10359 10364 10368 10373 10379 10385 10390 10394 10398 10405 10411 10415 10417 10418 10419 10421 10419 10418 10422 10425 10426 10429 10432
10256 10254 10252 10250 10248 10246 10245 10243 10242 10241 10239 10238 10238 10238 10238 10238 10239 10239 10239 10239 10239 10240 10242 10243 10244 10245 10246 10246 10247 10248 10249 10251 10252 10251 10250 10251 10252 10253 10255 10258 10261 10264 10268 10273 10277 10280 10283 10286 10289 10292 10296 10301 10306 10309 10311 10314 10317 10322 10326 10326 10329 10333 10338 10343 10348 10352 10356 10362 10369 10372 10376 10384 10392 10396 10401 10404 10402 10397 10396 10400 10406 10407 10406 10410 10417
10237 10235 10232 10230 10229 10228 10227 10226 10225 10224 10222 10220 10220 10220 10220 10220 10220 10219 10219 10219 10219 10220 10222 10224 10224 10224 10225 10226 10227 10228 10229 10230 10230 10228 10227 10227 10227 10229 10231 10235 10238 10241 10245 10251 10256 10260 10262 10264 10267 10270 10273 10277 10282 10286 10289 10292 10295 10299 10302 10304 10307 10311 10316 10321 10326 10330 10334 10340 10347 10351 10355 10364 10372 10375 10380 10384 10383 10380 10381 10382 10384 10385 10389 10395 10402
10219 10216 10214 10211 10209 10208 10207 10207 10206 10205 10204 10203 10203 10203 10203 10203 10202 10201 10201 10201 10200 10200 10201 10202 10203 10204 10204 10205 10208 10209 10210 10211 10210 10207 10205 10204 10204 10204 10207 10212 10217 10221 10225 10229 10235 10240 10242 10244 10246 10249 10252 10255 10258 10261 10266 10270 10274 10277 10279 10282 10285 10290 10295 10300 10304 10309 10311 10316 10324 10329 10335 10344 10350 10352 10357 10362 10363 10364 10363 10361 10363 10368 10374 10379 10384
10201 10199 10197 10193 10191 10189 10188 10188 10188 10187 10186 10186 10186 10187 10186 10186 10185 10184 10184 10184 10184 10183 10184 10183 10183 10183 10183 10184 10187 10190 10192 10193 10190 10186 10184 10183 10182 10182 10184 10189 10196 10202 10206 10210 10214 10219 10223 10225 10226 10229 10232 10234 10236 10237 10241 10246 10250 10254 10257 10260 10265 10270 10275 10279 10283 10288 10290 10294 10300 10307 10315 10322 10325 10329 10333 10336 10340 10344 10346 10347 10349 10352 10354 10360 10367
10182 10180 10179 10176 10173 10172 10171 10171 10171 10170 10170 10169 10169 10169 10167 10167 10167 10166 10166 10167 10167 10167 10167 10167 10166 10166 10165 10164 10166 10169 10173 10173 10169 10165 10162 10161 10161 10160 10162 10167 10175 10182 10188 10192 10195 10199 10203 10205 10207 10210 10213 10215 10216 10218 10220 10222 10225 10228 10232 10238 10244 10250 10254 10258 10262 10267 10270 10272 10277 10286 10294 10298 10301 10306 10308 10310 10317 10324 10329 10332 10333 10332 10334 10340 10344
10165 10162 10160 10157 10155 10153 10153 10153 10154 10153 10153 10152 10151 10150 10148 10148 10148 10147 10148 10150 10151 10151 10151 10150 10150 10150 10148 10146 10146 10150 10153 10152 10148 10143 10141 10140 10139 10139 10140 10145 10153 10160 10167 10172 10176 10179 10182 10184 10186 10191 10195 10196 10197 10199 10200 10201 10202 10204 10208 10215 10223 10229 10233 10237 10242 10246 10249 10251 10255 10264 10272 10274 10277 10281 10284 10288 10296 10302 10307 10311 10312 10312 10314 10318 10321
10148 10146 10143 10140 10137 10135 10135 10136 10137 10136 10135 10134 10132 10131 10130 10131 10131 10131 10133 10134 10134 10134 10134 10133 10133 10132 10130 10128 10126 10130 10134 10132 10125 10121 10119 10118 10117 10117 10120 10124 10130 10137 10144 10150 10154 10156 10160 10163 10165 10169 10175 10178 10180 10179 10179 10179 10180 10182 10187 10193 10200 10207 10212 10219 10222 10224 10226 10229 10235 10243 10250 10251 10252 10256 10260 10266 10274 10279 10283 10286 10290 10295 10298 10301 10307
10133 10130 10127 10124 10122 10120 10119 10120 10119 10118 10117 10115 10114 10114 10114 10116 10116 10115 10116 10118 10117 10116 10115 10116 10115 10113 10112 10110 10106 10108 10113 10111 10103 10099 10099 10099 10097 10098 10102 10106 10111 10117 10124 10129 10131 10133 10137 10141 10145 10149 10155 10160 10162 10161 10157 10155 10155 10161 10168 10173 10177 10183 10192 10201 10204 10203 10204 10208 10213 10223 10230 10231 10231 10234 10238 10244 10251 10256 10258 10263 10272 10278 10280 10284 10291
10117 10115 10112 10110 10108 10107 10105 10103 10102 10101 10100 10098 10098 10099 10099 10100 10100 10098 10098 10100 10100 10098 10097 10098 10098 10094 10092 10093 10091 10090 10094 10093 10084 10080 10081 10081 10079 10080 10085 10090 10095 10101 10105 10108 10109 10110 10115 10120 10124 10128 10134 10140 10143 10140 10136 10132 10131 10136 10145 10152 10156 10162 10172 10182 10184 10182 10182 10186 10192 10201 10209 10212 10212 10214 10218 10223 10230 10234 10237 10245 10254 10255 10256 10266 10274
10102 10100 10098 10096 10094 10092 10090 10088 10086 10086 10085 10084 10084 10084 10084 10083 10081 10080 10080 10081 10083 10082 10080 10080 10081 10078 10075 10076 10076 10074 10076 10076 10069 10064 10066 10064 10061 10061 10066 10071 10078 10084 10086 10087 10089 10092 10095 10099 10101 10103 10109 10116 10119 10118 10116 10112 10109 10113 10121 10129 10135 10145 10157 10163 10161 10158 10160 10165 10172 10181 10187 10192 10195 10196 10199 10204 10209 10214 10220 10229 10232 10231 10236 10249 10254
10087 10085 10084 10081 10079 10077 10075 10074 10072 10071 10071 10072 10070 10069 10068 10066 10064 10063 10063 10064 10065 10066 10065 10064 10064 10062 10058 10058 10059 10057 10059 10060 10056 10051 10051 10048 10044 10044 10047 10052 10058 10064 10067 10071 10075 10078 10080 10081 10082 10081 10082 10087 10093 10095 10095 10092 10090 10093 10100 10106 10116 10131 10142 10141 10135 10134 10138 10145 10153 10159 10166 10173 10177 10179 10182 10186 10190 10196 10204 10210 10211 10212 10219 10228 10230
10073 10071 10069 10066 10064 10063 10061 10060 10059 10057 10057 10058 10057 10054 10051 10051 10051 10050 10049 10049 10049 10049 10049 10048 10048 10046 10043 10042 10042 10042 10042 10044 10041 10037 10034 10032 10028 10028 10031 10035 10038 10043 10050 10056 10061 10066 10067 10065 10064 10063 10061 10061 10065 10070 10073 10073 10072 10075 10082 10090 10100 10112 10119 10117 10114 10113 10117 10125 10133 10139 10146 10154 10158 10161 10167 10170 10173 10179 10185 10190 10192 10195 10200 10205 10207
10058 10056 10054 10051 10049 10048 10047 10045 10044 10043 10043 10043 10043 10040 10036 10036 10037 10037 10035 10035 10034 10033 10032 10031 10031 10031 10028 10026 10027 10027 10025 10025 10024 10021 10018 10016 10014 10014 10017 10021 10022 10025 10033 10042 10045 10049 10052 10051 10049 10046 10042 10040 10043 10047 10050 10053 10054 10057 10066 10076 10084 10090 10093 10094 10093 10094 10098 10106 10115 10122 10129 10135 10139 10144 10150 10154 10157 10160 10164 10169 10173 10176 10180 10186 10188
10043 10041 10038 10036 10035 10033 10032 10030 10029 10029 10029 10028 10028 10027 10024 10022 10022 10022 10022 10021 10020 10017 10015 10015 10016 10016 10013 10011 10011 10010 10009 10007 10006 10005 10003 10002 10001 10001 10003 10006 10008 10009 10016 10025 10029 10030 10034 10036 10035 10031 10025 10023 10025 10028 10030 10032 10034 10038 10048 10058 10066 10070 10071 10070 10070 10075 10082 10091 10098 10106 10113 10118 10122 10127 10132 10135 10139 10141 10142 10146 10152 10155 10161 10168 10173
10029 10026 10023 10022 10020 10018 10016 10014 10014 10014 10014 10014 10014 10012 10010 10009 10008 10007 10007 10007 10005 10002 10000 9999 10001 10001 9999 9997 9995 9994 9993 9992 9990 9989 9989 9989 9989 9989 9989 9990 9991 9993 9998 10006 10011 10012 10015 10018 10019 10016 10011 10008 10009 10011 10012 10014 10015 10020 10027 10036 10043 10049 10051 10051 10053 10058 10067 10075 10082 10089 10097 10101 10104 10109 10112 10114 10116 10118 10121 10126 10133 10138 10145 10152 10158
10014 10011 10009 10008 10006 10003 10001 10000 9999 9999 9999 10000 10000 9998 9997 9996 9993 9992 9991 9991 9989 9987 9985 9985 9985 9985 9984 9983 9981 9978 9977 9976 9975 9973 9973 9975 9976 9976 9975 9976 9975 9976 9980 9986 9991 9994 9997 9999 10001 10001 9998 9995 9994 9994 9995 9998 9999 10001 10006 10012 10018 10025 10030 10035 10039 10043 10050 10059 10066 10073 10079 10082 10083 10087 10089 10090 10092 10098 10105 10111 10117 10122 10127 10134 10141
10000 9997 9995 9994 9991 9989 9988 9986 9985 9985 9985 9985 9985 9984 9984 9983 9979 9977 9976 9975 9973 9972 9971 9970 9970 9970 9969 9968 9966 9964 9961 9959 9959 9958 9958 9960 9960 9961 9961 9962 9961 9962 9964 9968 9972 9976 9979 9981 9984 9985 9984 9982 9980 9979 9980 9982 9982 9982 9987 9992 9998 10004 10010 10016 10021 10026 10033 10041 10047 10052 10058 10062 10061 10063 10066 10070 10075 10083 10089 10094 10099 10104 10109 10114 10120
9987 9984 9982 9980 9977 9975 9976 9974 9972 9971 9970 9970 9969 9968 9969 9969 9966 9963 9962 9960 9958 9957 9956 9956 9955 9955 9954 9952 9951 9949 9945 9943 9943 9943 9944 9944 9943 9944 9946 9947 9948 9949 9950 9952 9955 9958 9962 9964 9966 9967 9968 9967 9966 9965 9966 9966 9965 9965 9970 9975 9980 9985 9990 9995 10000 10005 10012 10020 10026 10032 10037 10040 10041 10044 10048 10053 10059 10066 10070 10074 10079 10085 10090 10095 10099
9974 9972 9969 9966 9964 9964 9963 9962 9960 9958 9957 9955 9954 9953 9954 9953 9951 9949 9948 9947 9945 9943 9942 9941 9941 9940 9940 9938 9936 9933 9930 9929 9929 9929 9928 9928 9928 9929 9930 9931 9933 9934 9935 9936 9939 9942 9944 9947 9948 9948 9950 9950 9950 9949 9950 9950 9950 9950 9953 9957 9961 9967 9972 9976 9981 9986 9993 10000 10006 10012 10017 10019 10022 10027 10032 10035 10039 10045 10050 10055 10060 10065 10071 10075 10079
9961 9959 9957 9955 9953 9953 9951 9949 9948 9946 9945 9943 9940 9939 9939 9939 9937 9934 9932 9932 9933 9932 9930 9928 9927 9926 9926 9925 9923 9920 9917 9915 9915 9915 9914 9913 9914 9915 9915 9916 9918 9920 9920 9922 9925 9927 9928 9930 9931 9930 9931 9933 9934 9933 9933 9934 9935 9935 9937 9940 9944 9950 9956 9961 9966 9972 9977 9981 9985 9991 9997 10001 10005 10010 10014 10017 10021 10027 10032 10037 10042 10048 10052 10057 10061
9949 9946 9945 9943 9942 9941 9940 9937 9936 9934 9933 9932 9929 9925 9923 9924 9925 9924 9920 9917 9918 9918 9918 9916 9914 9913 9913 9911 9910 9908 9906 9904 9902 9900 9900 9899 9899 9901 9901 9902 9904 9907 9907 9908 9911 9912 9913 9913 9914 9915 9915 9916 9918 9918 9917 9917 9918 9921 9923 9926 9929 9934 9941 9947 9953 9958 9962 9963 9966 9972 9977 9983 9989 9994 9998 10002 10006 10010 10015 10019 10024 10030 10035 10040 10045
9938 9934 9933 9931 9931 9930 9929 9927 9924 9923 9922 9921 9919 9915 9910 9907 9908 9911 9910 9907 9904 9904 9904 9904 9902 9901 9900 9899 9897 9895 9894 9893 9891 9889 9887 9886 9885 9885 9886 9888 9890 9893 9895 9896 9897 9897 9897 9898 9899 9900 9900 9900 9902 9903 9903 9903 9904 9907 9910 9913 9916 9920 9925 9931 9937 9942 9945 9947 9950 9954 9959 9965 9973 9978 9982 9985 9989 9994 9998 10002 10007 10013 10019 10024 10029
9928 9924 9922 9921 9919 9919 9918 9916 9913 9912 9910 9909 9907 9906 9902 9896 9892 9893 9895 9896 9895 9894 9892 9891 9890 9888 9888 9887 9886 9884 9882 9881 9880 9878 9876 9875 9873 9872 9871 9872 9875 9879 9882 9883 9884 9882 9882 9884 9885 9885 9885 9886 9887 9889 9891 9891 9892 9895 9898 9901 9904 9907 9910 9915 9920 9924 9928 9932 9937 9940 9944 9949 9956 9961 9966 9969 9973 9978 9984 9987 9991 9996 10002 10006 10012
9917 9915 9912 9910 9908 9908 9907 9905 9902 9901 9899 9897 9895 9893 9892 9889 9884 9879 9878 9879 9882 9883 9883 9881 9879 9876 9874 9874 9874 9873 9871 9870 9869 9867 9865 9863 9862 9861 9859 9859 9861 9864 9867 9869 9870 9870 9869 9870 9870 9870 9871 9872 9873 9876 9879 9880 9881 9884 9887 9890 9892 9894 9897 9900 9902 9906 9912 9918 9923 9927 9930 9934 9938 9944 9949 9954 9958 9963 9968 9972 9975 9980 9984 9990 9996
9906 9905 9903 9900 9898 9897 9896 9894 9892 9890 9888 9886 9884 9882 9880 9878 9876 9872 9868 9865 9864 9866 9869 9870 9869 9867 9865 9862 9860 9860 9860 9859 9858 9857 9855 9852 9851 9850 9848 9847 9848 9851 9853 9854 9855 9856 9857 9857 9857 9857 9858 9860 9861 9863 9866 9869 9871 9873 9875 9876 9878 9880 9882 9884 9887 9891 9896 9902 9906 9911 9916 9919 9923 9928 9933 9938 9943 9947 9951 9956 9960 9965 9969 9974 9979
9896 9894 9893 9890 9888 9886 9885 9884 9882 9879 9877 9875 9873 9872 9869 9867 9865 9863 9861 9857 9854 9852 9852 9854 9855 9855 9855 9852 9849 9848 9848 9847 9846 9847 9845 9842 9840 9839 9838 9836 9836 9838 9840 9841 9841 9842 9844 9844 9844 9844 9846 9847 9849 9851 9854 9856 9858 9860 9861 9863 9865 9866 9868 9870 9872 9876 9880 9884 9889 9895 9900 9904 9909 9913 9918 9922 9927 9932 9937 9942 9946 9950 9954 9958 9962
9885 9883 9882 9880 9878 9876 9875 9874 9872 9869 9867 9865 9863 9861 9860 9858 9855 9853 9851 9849 9847 9845 9843 9841 9840 9840 9841 9841 9839 9838 9836 9835 9834 9835 9834 9832 9830 9829 9827 9826 9825 9826 9827 9828 9829 9829 9831 9832 9832 9833 9834 9835 9837 9839 9841 9843 9845 9847 9848 9849 9850 9853 9855 9856 9859 9862 9866 9870 9875 9880 9885 9890 9895 9900 9904 9908 9913 9917 9922 9926 9931 9935 9939 9943 9948
9874 9873 9870 9868 9867 9866 9865 9863 9862 9860 9857 9855 9853 9851 9849 9848 9846 9844 9841 9839 9838 9836 9835 9834 9831 9828 9827 9827 9826 9826 9826 9825 9823 9823 9823 9821 9820 9818 9817 9816 9815 9815 9816 9817 9817 9817 9818 9820 9821 9821 9822 9823 9825 9827 9829 9831 9833 9835 9835 9836 9837 9839 9842 9844 9847 9849 9853 9856 9861 9866 9870 9875 9880 9886 9890 9895 9899 9902 9906 9910 9915 9919 9924 9930 9935
9863 9862 9859 9857 9856 9855 9854 9853 9852 9850 9848 9846 9844 9841 9840 9838 9837 9834 9832 9830 9829 9827 9825 9824 9823 9821 9818 9815 9813 9812 9813 9814 9814 9813 9813 9811 9810 9808 9807 9806 9805 9804 9805 9806 9806 9806 9806 9807 9809 9810 9811 9812 9814 9815 9816 9818 9820 9821 9823 9824 9825 9827 9829 9832 9834 9837 9841 9845 9849 9854 9858 9863 9868 9873 9877 9881 9885 9889 9892 9896 9900 9904 9911 9917 9923
9853 9851 9849 9847 9845 9844 9843 9841 9840 9839 9837 9836 9834 9832 9831 9829 9827 9825 9823 9821 9820 9819 9817 9815 9814 9813 9811 9808 9804 9800 9800 9802 9804 9804 9802 9801 9800 9799 9798 9796 9795 9794 9794 9795 9795 9795 9795 9796 9797 9799 9800 9801 9802 9803 9805 9806 9809 9811 9814 9815 9816 9816 9818 9821 9824 9827 9831 9835 9839 9843 9847 9852 9857 9861 9865 9869 9873 9877 9880 9883 9886 9891 9896 9902 9908
9842 9841 9839 9837 9834 9833 9832 9831 9829 9828 9826 9825 9824 9822 9821 9819 9817 9815 9813 9811 9810 9810 9809 9807 9806 9804 9803 9801 9797 9793 9789 9789 9792 9793 9792 9791 9790 9790 9789 9787 9786 9784 9784 9785 9785 9785 9785 9786 9787 9788 9790 9791 9792 9793 9795 9797 9800 9802 9804 9806 9806 9807 9808 9811 9814 9818 9822 9825 9828 9832 9836 9840 9844 9848 9852 9856 9859 9863 9866 9869 9872 9876 9881 9886 9891
9832 9830 9829 9827 9825 9823 9822 9821 9820 9818 9816 9815 9814 9812 9811 9810 9808 9806 9804 9802 9801 9800 9799 9799 9798 9796 9794 9792 9790 9786 9782 9779 9780 9782 9782 9781 9780 9779 9779 9778 9777 9775 9774 9775 9775 9775 9775 9776 9777 9778 9779 9780 9781 9783 9785 9787 9789 9791 9792 9794 9795 9796 9797 9800 9804 9807 9811 9813 9816 9820 9823 9826 9830 9835 9839 9842 9845 9848 9852 9855 9859 9863 9866 9870 9874
9822 9820 9819 9817 9815 9813 9812 9812 9810 9809 9807 9806 9804 9803 9801 9800 9798 9796 9795 9793 9791 9790 9790 9790 9789 9787 9786 9783 9781 9778 9775 9772 9771 9772 9772 9771 9770 9769 9769 9768 9767 9767 9765 9765 9765 9765 9765 9766 9767 9768 9769 9770 9771 9773 9774 9776 9778 9780 9781 9783 9784 9785 9786 9789 9792 9795 9798 9801 9803 9807 9810 9814 9819 9823 9826 9829 9831 9834 9838 9842 9845 9849 9852 9856 9860
9812 9810 9808 9807 9806 9804 9803 9802 9801 9799 9798 9796 9794 9793 9792 9790 9789 9787 9786 9785 9784 9783 9781 9780 9779 9777 9776 9775 9773 9770 9768 9765 9764 9763 9763 9762 9761 9760 9759 9758 9758 9757 9757 9756 9756 9756 9756 9756 9757 9758 9759 9760 9761 9763 9764 9766 9767 9769 9771 9772 9773 9774 9776 9778 9780 9783 9786 9788 9791 9795 9799 9803 9807 9811 9814 9816 9818 9821 9825 9828 9832 9835 9838 9842 9846
9802 9801 9799 9798 9796 9794 9793 9792 9791 9790 9789 9787 9785 9783 9781 9780 9779 9779 9777 9776 9776 9775 9773 9771 9769 9767 9765 9765 9764 9762 9760 9758 9756 9755 9755 9753 9752 9751 9750 9750 9749 9748 9748 9747 9747 9747 9747 9747 9748 9749 9750 9751 9752 9753 9754 9756 9757 9759 9761 9762 9763 9764 9766 9768 9770 9773 9775 9778 9781 9784 9788 9792 9795 9799 9801 9804 9806 9809 9813 9816 9819 9822 9826 9830 9833
9793 9792 9790 9789 9787 9785 9784 9783 9782 9780 9779 9777 9776 9774 9772 9771 9770 9769 9768 9768 9768 9767 9765 9763 9760 9758 9755 9754 9754 9753 9752 9749 9748 9747 9746 9745 9743 9742 9741 9741 9740 9739 9739 9739 9739 9738 9738 9738 9739 9740 9741 9742 9742 9743 9744 9746 9747 9749 9751 9752 9753 9754 9756 9758 9761 9763 9765 9768 9771 9774 9777 9781 9784 9787 9790 9792 9795 9798 9801 9805 9807 9810 9814 9817 9821
9784 9783 9781 9780 9779 9777 9776 9774 9773 9771 9769 9768 9767 9766 9764 9763 9762 9761 9760 9760 9759 9758 9757 9755 9753 9750 9747 9745 9745 9744 9743 9741 9740 9739 9738 9737 9736 9733 9732 9732 9732 9731 9730 9730 9730 9730 9730 9730 9730 9731 9732 9733 9733 9734 9735 9736 9737 9739 9741 9742 9743 9745 9747 9749 9751 9753 9756 9758 9761 9764 9767 9771 9774 9777 9780 9782 9785 9788 9791 9794 9796 9799 9802 9805 9808
9775 9774 9772 9771 9770 9768 9767 9766 9764 9763 9761 9760 9758 9757 9756 9755 9755 9754 9753 9753 9751 9750 9749 9747 9745 9743 9740 9737 9736 9735 9734 9733 9732 9730 9730 9729 9728 9726 9724 9724 9723 9723 9722 9721 9721 9722 9722 9722 9722 9723 9724 9724 9725 9725 9726 9727 9728 9730 9732 9733 9734 9735 9737 9739 9741 9743 9746 9748 9751 9754 9757 9761 9764 9767 9770 9773 9775 9778 9781 9783 9786 9788 9791 9794 9797
9767 9765 9763 9762 9761 9760 9759 9757 9756 9754 9753 9752 9751 9749 9748 9747 9747 9746 9746 9745 9743 9742 9741 9740 9738 9736 9733 9730 9728 9727 9726 9725 9724 9723 9722 9721 9721 9719 9717 9716 9715 9715 9714 9714 9713 9714 9714 9714 9714 9715 9715 9716 9717 9717 9718 9719 9720 9721 9723 9724 9725 9726 9728 9730 9732 9734 9736 9739 9741 9744 9747 9750 9754 9757 9760 9762 9765 9767 9770 9772 9775 9778 9781 9784 9787
9758 9757 9755 9753 9752 9751 9750 9749 9747 9746 9745 9744 9743 9742 9741 9740 9739 9738 9737 9736 9735 9735 9734 9733 9731 9729 9726 9724 9721 9720 9719 9718 9717 9716 9715 9714 9713 9712 9710 9709 9708 9708 9707 9706 9706 9706 9706 9706 9706 9707 9707 9708 9709 9709 9710 9711 9712 9713 9714 9715 9717 9718 9719 9721 9723 9725 9727 9730 9732 9735 9738 9741 9743 9746 9749 9752 9754 9757 9759 9762 9765 9768 9771 9774 9776
9749 9748 9746 9745 9744 9742 9741 9740 9739 9738 9737 9736 9735 9734 9733 9732 9732 9731 9730 9729 9728 9728 9727 9726 9724 9722 9720 9717 9715 9713 9712 9711 9710 9708 9708 9707 9706 9705 9704 9702 9701 9700 9700 9699 9699 9698 9698 9698 9699 9699 9699 9700 9701 9701 9702 9703 9704 9705 9706 9707 9708 9710 9711 9712 9714 9716 9718 9721 9723 9726 9728 9731 9734 9736 9739 9742 9744 9747 9749 9752 9755 9758 9761 9763 9766
9740 9739 9738 9737 9736 9735 9733 9732 9731 9730 9729 9728 9727 9727 9726 9725 9724 9723 9722 9721 9720 9720 9720 9719 9717 9715 9713 9711 9709 9707 9705 9704 9703 9701 9700 9700 9699 9698 9697 9696 9694 9693 9692 9692 9692 9691 9691 9691 9691 9691 9692 9692 9693 9694 9694 9695 9696 9697 9698 9699 9700 9702 9703 9704 9706 9707 9709 9711 9714 9716 9719 9722 9724 9727 9729 9732 9734 9737 9739 9742 9745 9748 9751 9753 9756